Date String (YYYY-MM-DD hh:mm:ss) UTC,Instrument flags,Ambient pressure (hPa),Sample flow (lpm),Bypass flow (lpm),Sample temperature (°C),Ambient temperature (°C),ASC tube jacket temperature (°C),LED temperature (°C),Box temperature (°C),Sample RH (%),Span deviation,Mass concentration (μg/m³),Mass concentration (μg/m³),Mass concentration (μg/m³)
DateTimeUTC,F1_M11,P_M11,Q1_M11,Q2_M11,T1_M11,T2_M11,T3_M11,T4_M11,T5_M11,U1_M11,ZSPAN_M11,X0_M11,X2_M11,X1_M11
2022-04-08 10:00:00,,0833.4,4.99,0.00,21.4,22.0,00.0,30.1,23.2,08.0,0000.0,0010.46,0003.24,0001.46
2022-04-08 10:01:00,,0833.4,5.00,0.00,21.4,21.7,00.0,30.1,23.2,08.0,0000.0,0010.62,0003.21,0001.47
2022-04-08 10:02:00,,0833.4,5.00,0.00,21.3,21.4,00.0,30.1,23.1,08.0,0000.0,0010.56,0003.17,0001.46
2022-04-08 10:03:00,,0833.3,4.99,0.00,21.3,21.2,00.0,30.1,23.0,08.0,0000.0,0010.57,0003.16,0001.45
2022-04-08 10:04:00,,0833.4,5.00,0.00,21.3,21.1,00.0,30.2,23.0,08.0,0000.0,0010.45,0003.16,0001.46
2022-04-08 10:05:00,,0833.3,5.00,0.00,21.3,21.0,00.0,30.2,23.0,08.0,0000.0,0010.19,0003.15,0001.45
2022-04-08 10:06:00,,0833.3,5.01,0.00,21.3,20.9,00.0,30.2,23.1,08.0,0000.0,0010.20,0003.13,0001.43
2022-04-08 10:07:00,,0833.3,4.99,0.00,21.4,20.9,00.0,30.2,23.1,08.0,0000.0,0010.19,0003.14,0001.43
2022-04-08 10:08:00,,0833.3,5.01,0.00,21.4,20.9,00.0,30.2,23.1,08.1,0000.0,0010.24,0003.16,0001.43
2022-04-08 10:09:00,,0833.3,4.99,0.00,21.4,20.9,00.0,30.2,23.1,08.0,0000.0,0010.20,0003.12,0001.44
2022-04-08 10:10:00,,0833.3,5.01,0.00,21.4,20.9,00.0,30.2,23.2,08.0,0000.0,0009.55,0003.10,0001.45
2022-04-08 10:11:00,,0833.3,4.99,0.00,21.4,20.8,00.0,30.2,23.2,08.1,0000.0,0009.13,0003.06,0001.46
2022-04-08 10:12:00,,0833.2,5.01,0.00,21.4,20.8,00.0,30.3,23.2,08.0,0000.0,0010.30,0002.99,0001.45
2022-04-08 10:13:00,,0833.2,4.99,0.00,21.4,20.8,00.0,30.3,23.2,08.0,0000.0,0010.89,0003.02,0001.45
2022-04-08 10:14:00,,0833.2,5.01,0.00,21.4,20.8,00.0,30.3,23.2,08.1,0000.0,0011.78,0003.08,0001.45
2022-04-08 10:15:00,,0833.2,4.99,0.00,21.4,20.8,00.0,30.3,23.2,08.0,0000.0,0011.85,0003.06,0001.45
2022-04-08 10:16:00,,0833.1,5.01,0.00,21.4,20.8,00.0,30.3,23.2,08.0,0000.0,0011.68,0002.97,0001.44
2022-04-08 10:17:00,,0833.2,5.00,0.00,21.4,20.8,00.0,30.3,23.2,08.0,0000.0,0011.68,0002.98,0001.44
2022-04-08 10:18:00,,0833.2,4.99,0.00,21.4,20.8,00.0,30.3,23.2,08.1,0000.0,0011.29,0002.96,0001.45
2022-04-08 10:19:00,,0833.1,5.01,0.00,21.4,20.8,00.0,30.3,23.2,08.1,0000.0,0011.67,0002.90,0001.44
2022-04-08 10:20:00,,0833.1,4.99,0.00,21.4,20.8,00.0,30.3,23.2,08.1,0000.0,0012.67,0002.86,0001.42
2022-04-08 10:21:00,,0833.1,5.00,0.00,21.4,20.8,00.0,30.3,23.2,08.1,0000.0,0012.99,0002.95,0001.42
2022-04-08 10:22:00,,0833.1,5.01,0.00,21.4,20.7,00.0,30.3,23.2,08.1,0000.0,0013.48,0002.97,0001.43
2022-04-08 10:23:00,,0833.1,4.98,0.00,21.4,20.7,00.0,30.3,23.1,08.1,0000.0,0011.55,0003.06,0001.47
2022-04-08 10:24:00,,0833.1,5.01,0.00,21.4,20.7,00.0,30.3,23.1,08.1,0000.0,0010.87,0003.05,0001.48
2022-04-08 10:25:00,,0833.1,5.00,0.00,21.4,20.7,00.0,30.3,23.1,08.1,0000.0,0009.95,0003.05,0001.51
2022-04-08 10:26:00,,0833.1,5.00,0.00,21.4,20.7,00.0,30.3,23.1,08.1,0000.0,0009.78,0003.03,0001.51
2022-04-08 10:27:00,,0833.0,5.01,0.00,21.4,20.7,00.0,30.3,23.1,08.1,0000.0,0010.22,0003.10,0001.53
2022-04-08 10:28:00,,0833.0,4.98,0.00,21.4,20.7,00.0,30.3,23.1,08.2,0000.0,0010.44,0003.07,0001.52
2022-04-08 10:29:00,,0833.1,5.01,0.00,21.4,20.7,00.0,30.3,23.1,08.2,0000.0,0010.88,0003.03,0001.51
2022-04-08 10:30:00,,0833.1,4.99,0.00,21.4,20.7,00.0,30.3,23.1,08.2,0000.0,0010.47,0002.97,0001.53
2022-04-08 10:31:00,,0833.0,5.02,0.00,21.5,21.4,00.0,30.4,23.3,08.1,0000.0,0009.13,0002.95,0001.53
2022-04-08 10:32:00,,0833.0,4.99,0.00,21.6,22.3,00.0,30.4,23.6,08.1,0000.0,0008.84,0002.88,0001.53
2022-04-08 10:33:00,,0833.0,4.99,0.00,21.8,23.0,00.0,30.5,23.9,08.0,0000.0,0008.03,0002.82,0001.51
2022-04-08 10:34:00,,0833.0,5.00,0.00,21.9,23.0,00.0,30.6,24.0,08.0,0000.0,0008.10,0002.74,0001.50
2022-04-08 10:35:00,,0832.9,5.01,0.00,21.9,22.7,00.0,30.6,23.9,07.9,0000.0,0008.36,0002.73,0001.49
2022-04-08 10:36:00,,0832.9,4.99,0.00,21.9,22.4,00.0,30.6,23.8,07.9,0000.0,0008.52,0002.67,0001.47
2022-04-08 10:37:00,,0832.9,5.00,0.00,21.9,22.1,00.0,30.6,23.7,07.9,0000.0,0008.52,0002.71,0001.47
2022-04-08 10:38:00,,0832.8,5.00,0.00,21.9,21.9,00.0,30.7,23.7,07.9,0000.0,0008.23,0002.73,0001.48
2022-04-08 10:39:00,,0832.8,5.01,0.00,21.9,21.7,00.0,30.7,23.7,07.8,0000.0,0008.21,0002.76,0001.50
2022-04-08 10:40:00,,0832.8,4.99,0.00,21.9,21.5,00.0,30.7,23.6,07.8,0000.0,0008.02,0002.79,0001.51
2022-04-08 10:41:00,,0832.9,5.00,0.00,21.9,21.4,00.0,30.7,23.6,07.9,0000.0,0007.84,0002.80,0001.49
2022-04-08 10:42:00,,0832.8,5.01,0.00,21.9,21.3,00.0,30.7,23.6,07.9,0000.0,0007.98,0002.85,0001.49
2022-04-08 10:43:00,,0832.8,4.99,0.00,21.8,21.3,00.0,30.7,23.6,07.9,0000.0,0008.08,0002.85,0001.48
2022-04-08 10:44:00,,0832.8,5.01,0.00,21.8,21.2,00.0,30.7,23.5,07.9,0000.0,0008.24,0002.87,0001.48
2022-04-08 10:45:00,,0832.8,5.00,0.00,21.8,21.1,00.0,30.7,23.5,07.9,0000.0,0008.53,0002.92,0001.47
2022-04-08 10:46:00,,0832.7,4.99,0.00,21.8,21.1,00.0,30.7,23.5,07.9,0000.0,0008.31,0002.94,0001.49
2022-04-08 10:47:00,,0832.7,5.00,0.00,21.8,21.0,00.0,30.7,23.5,07.9,0000.0,0008.83,0002.95,0001.50
2022-04-08 10:48:00,,0832.7,5.01,0.00,21.8,21.0,00.0,30.7,23.5,07.9,0000.0,0008.97,0002.89,0001.50
2022-04-08 10:49:00,,0832.7,5.01,0.00,21.8,21.0,00.0,30.7,23.4,07.9,0000.0,0008.93,0002.80,0001.49
2022-04-08 10:50:00,,0832.7,4.98,0.00,21.7,21.0,00.0,30.7,23.4,08.0,0000.0,0008.63,0002.80,0001.48
2022-04-08 10:51:00,,0832.8,5.01,0.00,21.7,20.9,00.0,30.7,23.4,08.0,0000.0,0008.69,0002.82,0001.48
2022-04-08 10:52:00,,0832.8,5.01,0.00,21.7,20.9,00.0,30.7,23.4,08.0,0000.0,0008.87,0002.79,0001.48
2022-04-08 10:53:00,,0832.7,5.00,0.00,21.7,20.9,00.0,30.7,23.4,08.1,0000.0,0008.78,0002.75,0001.49
2022-04-08 10:54:00,,0832.8,4.99,0.00,21.7,20.9,00.0,30.7,23.4,08.0,0000.0,0008.83,0002.81,0001.50
2022-04-08 10:55:00,,0832.8,5.01,0.00,21.7,20.9,00.0,30.7,23.3,08.0,0000.0,0008.93,0002.85,0001.51
2022-04-08 10:56:00,,0832.7,5.00,0.00,21.6,20.9,00.0,30.7,23.3,08.1,0000.0,0009.09,0002.84,0001.51
2022-04-08 10:57:00,,0832.7,4.99,0.00,21.6,20.8,00.0,30.7,23.3,08.1,0000.0,0009.05,0002.90,0001.51
2022-04-08 10:58:00,,0832.7,5.01,0.00,21.6,20.8,00.0,30.7,23.3,08.1,0000.0,0008.53,0002.87,0001.51
2022-04-08 10:59:00,,0832.7,5.01,0.00,21.6,20.8,00.0,30.7,23.3,08.1,0000.0,0008.42,0002.87,0001.52
